Location: Warszawa
(52.2500°N, 21.0000°E)
Time: 14:23:08
(UTC+02:00)

Vanguard 2 - Pass Details

Date: 10 February 2023
Orbit: 553 x 2927 km, 32.9° (Epoch: 27 March)

Event Time Altitude Azimuth Distance (km) Brightness Sun altitude
Rises 21:43:26 0° 246° (WSW) 5,028 11.9 -44.4°
Reaches altitude 10° 21:46:46 10° 237° (WSW) 4,349 11.4 -44.7°
Enters shadow 21:50:27 21° 223° (SW) 3,797 10.9 -45.1°
Maximum altitude 21:57:34 34° 180° (S) 3,575 - -45.8°
Drops below altitude 10° 22:11:45 10° 125° (SE) 5,718 - -47.2°
Sets 22:16:58 0° 117° (ESE) 6,778 - -47.7°
